Hourly Data Report for June 25, 2012

All times are specified in Local Standard Time (LST). Add 1 hour to adjust for Daylight Saving Time where and when it is observed.

ABBOTSFORD A
BRITISH COLUMBIA

49°01'31.000" N
122°21'36.000" W
59.10 m
1100031
71108
YXX

Download Data

Hourly Data (June 2012)
Hourly Data Report for June 25, 2012
Temp Definition
°C
Dew Point Temp Definition
°C
Rel Hum Definition
%
Wind Dir Definition
10's deg

Wind Spd Definition
km/h
Visibility Definition
km
Stn Press Definition
kPa
Hmdx Definition


Wind Chill Definition


Weather Definition


TIME
00:00 Legend Double Dagger 10.4 8.5 88 36 6 10.0 101.02     LegendNANA
01:00 Legend Double Dagger 9.8 8.1 89 1 6 10.0 101.01     Clear
02:00 Legend Double Dagger 9.6 8.4 92   0 10.0 100.99     LegendNANA
03:00 Legend Double Dagger 8.3 7.9 97 22 4 10.0 101.01     LegendNANA
04:00 Legend Double Dagger 8.3 7.7 96   0 10.0 100.99     Fog
05:00 Legend Double Dagger 7.9 7.3 96   0 10.0 100.97     Fog
06:00 Legend Double Dagger 11.4 9.7 89 4 6 10.0 100.92     LegendNANA
07:00 Legend Double Dagger 13.1 10.3 83 3 5 10.0 100.88     Mainly Clear
08:00 Legend Double Dagger 14.4 10.7 78 1 5 10.0 100.82     LegendNANA
09:00 Legend Double Dagger 15.5 10.7 73 26 4 10.0 100.74     LegendNANA
10:00 Legend Double Dagger 16.6 10.1 65 21 9 10.0 100.71     Mostly Cloudy
11:00 Legend Double Dagger 17.7 12.0 69 19 9 10.0 100.66     LegendNANA
12:00 Legend Double Dagger 18.6 11.0 61 20 8 10.0 100.61     LegendNANA
13:00 Legend Double Dagger 18.5 11.4 63 21 21 10.0 100.63     Mostly Cloudy
14:00 Legend Double Dagger 20.0 11.6 58 21 16 10.0 100.63     LegendNANA
15:00 Legend Double Dagger 20.5 9.3 48 21 17 10.0 100.63     LegendNANA
16:00 Legend Double Dagger 19.8 8.3 47 20 19 10.0 100.62     Mostly Cloudy
17:00 Legend Double Dagger 18.1 10.1 59 21 22 10.0 100.68     LegendNANA
18:00 Legend Double Dagger 16.9 10.8 67 20 19 10.0 100.71     LegendNANA
19:00 Legend Double Dagger 16.0 9.5 65 22 18 10.0 100.74     Cloudy
20:00 Legend Double Dagger 15.4 10.2 71 19 14 10.0 100.74     LegendNANA
21:00 Legend Double Dagger 13.3 8.8 74 21 8 10.0 100.74     LegendNANA
22:00 Legend Double Dagger 12.7 8.8 77 29 7 10.0 100.72     Mostly Cloudy
23:00 Legend Double Dagger 11.6 8.1 79 30 5 10.0 100.68     LegendNANA

Notes on Data Quality.

Legend

  • E = Estimated
  • M = Missing
  • NA = Not Available
  • ‡ = Partner data that is not subject to review by the National Climate Archives
Date modified: